Flag for Canada Weather past 2 weeks in Kugluktuk, Nunavut Territory, Canada

Now
1 °F

Snow flurries. Partly sunny.


Feels Like: -22 °F
Forecast: 5 / 10 °F
Wind: 24 mph from East

Location: Coppermine

Current Time: Dec 17, 2014 at 4:46:43 PM

Latest Report: Dec 17, 2014 at 4:00 PM


Visibility: 5 mi

Pressure: 29.93 "Hg

Humidity: 92%

Dew point: 0 °F

Location of KugluktukLocation

Historic Weather in Kugluktuk — Graph

°F

Kugluktuk temperature yesterday

Maximum temperature yesterday: 10 °F (at 2:00 AM)
Minimum temperature yesterday: -2 °F (at 12:00 PM)
Average temperature yesterday: 4 °F

Past Weeks' High & Low Weather Summary

 TemperatureHumidityPressure
High16 °F (Dec 15, 11:00 AM)92% (Dec 16, 3:52 PM)30.55 "Hg (Dec 16, 3:52 PM)
Low-33 °F (Dec 5, 2:00 AM)61% (Dec 7, 8:00 PM)29.52 "Hg (Dec 15, 2:00 PM)
Average-11 °F77%30.02 "Hg
* Reported Dec 2 3:00 PM — Dec 17 3:00 PM, Kugluktuk, Weather by CustomWeather, © 2014

Note: Actual official high and low records may vary slightly from our data, if they occured in-between our weather recording intervals... More about our weather records

Advertising

Kugluktuk weather history for previous 24 hours

 ConditionsComfort  
Time TempWeatherWind HumidityBarometerVisibility
3:00 PM
Dec 17
3 °FLight snow. Broken clouds.22 mph85%29.93 "Hg5 mi
2:00 PM3 °FLight snow. Broken clouds.22 mph85%29.92 "Hg4 mi
1:00 PM3 °FLight snow. Mostly cloudy.24 mph92%29.90 "Hg4 mi
12:00 PM5 °FLight snow. Mostly cloudy.23 mph85%29.88 "Hg2 mi
11:00 AM7 °FLight snow. Mostly cloudy.25 mph85%29.86 "Hg1 mi
10:53 AM7 °FLight snow. Mostly cloudy.22 mph85%29.86 "Hg1 mi
10:00 AM9 °FLight snow. Low clouds.25 mph85%29.86 "Hg1 mi
9:00 AM10 °FLight snow. Overcast.18 mph85%29.85 "Hg8 mi
8:00 AM10 °FLight snow. More clouds than sun.12 mph85%29.84 "Hg10 mi
7:00 AM10 °FLight snow. More clouds than sun.13 mph85%29.83 "Hg10 mi
6:00 AM10 °FLight snow. Overcast.13 mph85%29.81 "Hg10 mi
5:00 AM10 °FLight snow. Overcast.12 mph85%29.81 "Hg8 mi
4:00 AM10 °FLight snow. Overcast.9 mph85%29.80 "Hg6 mi
3:00 AM10 °FLight snow. Overcast.12 mph85%29.79 "Hg4 mi
2:00 AM10 °FLight snow. Overcast.12 mph85%29.78 "Hg2 mi
1:00 AM10 °FLight snow. Low clouds.9 mph85%29.77 "Hg4 mi
12:00 AM9 °FLight snow. Low clouds.13 mph92%29.76 "Hg10 mi
11:00 PM
Dec 16
9 °FLight snow. Mostly cloudy.13 mph92%29.76 "Hg10 mi
10:54 PM9 °FLight snow. Mostly cloudy.13 mph92%29.76 "Hg10 mi
10:00 PM9 °FLight snow. Low clouds.9 mph92%29.77 "Hg4 mi
9:00 PM7 °FLight snow. Low clouds.5 mph92%29.78 "Hg4 mi
8:00 PM7 °FSnow flurries. Ice fog.8 mph85%29.77 "Hg3 mi
7:54 PM5 °FSnow flurries. Ice fog.7 mph92%29.77 "Hg3 mi
7:00 PM5 °FSnow flurries. Ice fog.3 mph85%29.80 "Hg1 mi
6:48 PM5 °FSnow flurries. Ice fog.2 mph85%29.80 "Hg1 mi
6:00 PM3 °FSnow flurries. Ice fog.5 mph85%29.82 "Hg0 mi
5:00 PM1 °FSnow flurries. Ice fog.5 mph92%29.80 "Hg0 mi
4:00 PM1 °FSnow flurries. Ice fog.3 mph85%29.80 "Hg0 mi
Weather by CustomWeather, © 2014

See weather overviewHow to use our weather pages